Tracking 30685 objects as of 17-Jun-2025
HD Live streaming from Space Station
objects crossing your sky now

NOAA 16 DEB

Track NOAA 16 DEB now!
10-day predictions


NORAD ID: 41076
Int'l Code: 2000-055AK
Perigee: 482.8 km
Apogee: 604.8 km
Inclination: 99.2 °
Period: 95.4 minutes
Semi major axis: 6914 km
RCS: Unknown
Launch date: September 21, 2000
Source: United States (US)
Launch site: AIR FORCE WESTERN TEST RANGE (AFWTR)

Note: This is SATELLITE DEBRIS
Your satellite tracking list
Your tracking list is empty




NASA's NSSDC Master Catalog

Two Line Element Set (TLE):
1 41076U 00055AK  25167.40594382  .00018647  00000-0  10544-2 0  9996
2 41076  99.1913 325.1741 0088228 261.0572  98.0657 15.09842296510159
Source of the keplerian elements: AFSPC